Regional Weather Roundup
Issued by NWS

Home | Current Version | Previous Version | Graphics & Text | Print | Product List | Glossary Off
Versions: 1 2 3 4 5 6 7 8 9 10 11 12 13 14 15 16 17 18 19 20 21 22 23 24 25 26 27 28 29 30 31 32 33 34 35 36 37 38 39 40 41 42 43 44 45 46 47 48 49 50

000
ASUS43 KMKX 070600
RWRWI

WISCONSIN REGIONAL WEATHER ROUNDUP
NATIONAL WEATHER SERVICE MILWAUKEE/SULLIVAN WI
100 AM CDT THU MAY 07 2015

NOTE: "FAIR" INDICATES FEW OR NO CLOUDS BELOW 12,000 FEET WITH NO
SIGNIFICANT WEATHER AND/OR OBSTRUCTIONS TO VISIBILITY.

WIZ001-002-006>008-014>016-023>028-070700-
NORTHWEST WISCONSIN

CITY           SKY/WX    TMP DP  RH WIND       PRES   REMARKS
SUPERIOR ARPT  CLOUDY    42  37  83 NE7       29.93S
ASHLAND        CLOUDY    50  48  93 CALM      29.93F
6HR MIN TEMP:  47; 6HR MAX TEMP:  54; 6HR PCP:  0.04;

HAYWARD        MOCLDY    63  58  83 S14G21    29.93F
6HR MIN TEMP:  63; 6HR MAX TEMP:  72; 6HR PCP:  0.04;

SIREN          LGT RAIN  65  58  79 S10       29.90S
CUMBERLAND     CLOUDY    61  59  94 SE7       29.93S
RICE LAKE      CLOUDY    62  58  87 SE12      29.95S
CHETEK         CLOUDY    62  60  94 E8        29.94S
LADYSMITH      CLOUDY    62  60  92 SE9       29.99S
EAU CLAIRE     NOT AVBL
MENOMONIE      MOCLDY    62  60  94 E8        29.93S
NEW RICHMOND   MOCLDY    63  58  86 SE9       29.90S
OSCEOLA        MOCLDY    64  60  87 SE10      29.92R
$$

WIZ003>005-009-010-017-018-070700-
NORTH CENTRAL WISCONSIN

CITY           SKY/WX    TMP DP  RH WIND       PRES   REMARKS
MANITOWISH WTR MOCLDY    60  56  88 S6        30.02F
ARBOR VITAE    CLOUDY    62  57  83 SE7       30.03F
WOODRUFF       CLOUDY    62  57  83 SE7       30.03F
RHINELANDER    CLOUDY    59  54  83 S7        30.05S
6HR MIN TEMP:  57; 6HR MAX TEMP:  68;

EAGLE RIVER    PTCLDY    58  52  80 CALM      30.04S
LAND O LAKES   PTCLDY    59  53  80 S6        30.05S
PHILLIPS       MOCLDY    60  58  94 SE6       30.00F
TOMAHAWK       MOCLDY    58  55  90 SE3       30.04F FOG
MEDFORD        MOCLDY    60  57  90 SE6       30.02S
MERRILL        PTCLDY   N/A N/A N/A SE6       30.05S
$$

WIZ029-030-035-036-043>047-070700-
CENTRAL WISCONSIN

CITY           SKY/WX    TMP DP  RH WIND       PRES   REMARKS
WAUSAU         PTCLDY    59  56  89 E6        30.02F
6HR MIN TEMP:  59; 6HR MAX TEMP:  70;

MOSINEE        CLOUDY    59  55  88 SE8       30.05S
MARSHFIELD     CLOUDY    62  57  83 SE7       30.01F
6HR MIN TEMP:  62; 6HR MAX TEMP:  72;

STEVENS POINT  PTCLDY    59  55  84 SE6       30.05S
WAUPACA        CLEAR     57  55  90 CALM      30.06R FOG
WAUTOMA        NOT AVBL
WISC RAPIDS    PTCLDY    63  56  78 SE8       30.03F
6HR MIN TEMP:  62; 6HR MAX TEMP:  72;

CAMP DOUGLAS   NOT AVBL
$$

WIZ011>013-019>022-031-037>040-048>050-070700-
NORTHEAST WISCONSIN

CITY           SKY/WX    TMP DP  RH WIND       PRES   REMARKS
ANTIGO         PTCLDY    54  53  95 SE10      30.06S
SHAWANO        PTCLDY    55  52  90 E6        30.07S FOG
OCONTO         PTCLDY    49  43  81 CALM      30.08S
STURGEON BAY   PTCLDY    48  34  57 SE8       30.09F
6HR MIN TEMP:  48; 6HR MAX TEMP:  55;

GREEN BAY      PTCLDY    51  49  92 E3        30.07F FOG
6HR MIN TEMP:  51; 6HR MAX TEMP:  68;

MANITOWOC      NOT AVBL
APPLETON       PTCLDY    55  52  88 E6        30.06S
CLINTONVILLE   PTCLDY    55  54  94 E3        30.06S FOG
OSHKOSH        CLEAR     54  51  90 S6        30.05S FOG
6HR MIN TEMP:  54; 6HR MAX TEMP:  68;

$$

WIZ032>034-041-042-053>061-070700-
SOUTHWEST WISCONSIN

CITY           SKY/WX    TMP DP  RH WIND       PRES   REMARKS
LA CROSSE      MOCLDY    67  59  75 SE5       29.94F
6HR MIN TEMP:  65; 6HR MAX TEMP:  78; 6HR PCP:  0.03;

SPARTA         CLOUDY    64  59  81 CALM      29.99S
VIROQUA        CLOUDY    64  58  80 SE8       29.99F
BOSCOBEL       CLOUDY    65  59  81 CALM      29.99S
6HR MIN TEMP:  64; 6HR MAX TEMP:  79; 6HR PCP: TRACE;

PRAIRIE DU CHI CLOUDY    66  57  72 SE7       29.96F
PLATTEVILLE    CLOUDY    65  60  85 E9        30.00S
$$

WIZ056-057-062-063-064-067-068-070700-
SOUTH CENTRAL WISCONSIN

CITY           SKY/WX    TMP DP  RH WIND       PRES   REMARKS
REEDSBURG      MOCLDY    64  61  88 CALM      30.01R
BARABOO/DELLS  MOCLDY    62  57  84 SE5       30.02S HAZE
LONE ROCK      NOT AVBL
MINERAL POINT  CLOUDY    66  59  77 E7        30.02S
MADISON        CLEAR     61  56  83 SE7       30.03F HAZE
6HR MIN TEMP:  61; 6HR MAX TEMP:  74;

MIDDLETON      CLEAR     62  58  87 SE6       30.03F
WATERTOWN      PTCLDY    56  56 100 CALM      30.05R FOG
MONROE         PTCLDY    61  57  88 SE8       30.03F FOG
JANESVILLE     CLEAR     59  55  88 CALM      30.05R FOG
$$

WIZ051-052-058>065-066-070>072-070700-
SOUTHEAST WISCONSIN

CITY           SKY/WX    TMP DP  RH WIND       PRES   REMARKS
MILWAUKEE      FOG       46  46 100 CALM      30.08F VSB 1
6HR MIN TEMP:  45; 6HR MAX TEMP:  47;

WAUKESHA       FOG       46  46 100 CALM      30.08F VSB 1/4
MILWAUKEE/TIMM FOG       46  45  93 CALM      30.08F VSB 1/2
RACINE         CLEAR     45  43  93 CALM      30.09S
6HR MIN TEMP:  45; 6HR MAX TEMP:  51;

BURLINGTON     CLEAR     50  50  99 CALM      30.07F FOG
KENOSHA        FOG       47  46  97 CALM      30.07S VSB 1/4
6HR MIN TEMP:  46; 6HR MAX TEMP:  56;

FOND DU LAC    CLEAR     56  52  86 S8        30.05S FOG
6HR MIN TEMP:  56; 6HR MAX TEMP:  67;

SHEBOYGAN      MOCLDY    45  44  97 CALM      30.08S FOG
6HR MIN TEMP:  44; 6HR MAX TEMP:  49;

WEST BEND      FOG       50  48  93 CALM      30.08S VSB<1/4
JUNEAU         CLEAR     56  54  91 SE7       30.06S FOG
$$

LSZ147-162-070700-
LAKE SUPERIOR

STATION/POSITION TIME  TEMP    WIND        PRES    WAVE
                       AIR SEA DIR/SP/G            HT/PER
                 (UTC) (F)     (DEG/KT/KT) (MB)    (FT/S)
W MID LAKE BUOY  0450   44 35  120/ 10/ 12 1015.2F   1/ 3
DEVILS ISLAND    0500   46      CALM  /  2 1015.1R
PORT WING        0540   41      30/  6/  9 1013.2F
SAXON HARBOR     0500          180/  3/  9 1013.9
$$

LMZ867-665-643>646-070700-
LAKE MICHIGAN

STATION/POSITION TIME  TEMP    WIND        PRES    WAVE
                       AIR SEA DIR/SP/G            HT/PER
                 (UTC) (F)     (DEG/KT/KT) (MB)    (FT/S)
CHAMBERS ISLAND  0500   49      CALM  /  1 1019.0S
NORTHPORT PIER   0500   47     150/  4/  5 1019.0F
SISTER BAY       0502   50        CALM       N/A
KEWAUNEE LAKESHO 0500   48      CALM  /  1 1018.1
SHEBOYGAN LAKESH 0500   48      CALM  /  1 1019.5S
PORT WASHINGTON  0500   46     310/  3/  5 1019.3F
ATWATER BUOY     0500   45     330/  4/  6 1019.9F
MILWAUKEE LAKESH 0500   47     340/  2/  3   N/A
KENOSHA   LAKESH 0500   45      30/  3/  4 1018.6F
$$

TC  - TEMPERATURE IN CELSIUS
VSB - VISIBILITY IN STATUTE MILES
WCI - WIND CHILL INDEX
HX  - HEAT INDEX



USA.gov is the U.S. government's official web portal to all federal, state and local government web resources and services.